• Em Portugal
  • Lista de países
  • Para 7 dias
  • Temperatura da água
  • Mapas de satélite
  • Mapa do tempo
  • Widgets de tempo
  • user-avatar
    Iniciar Sessão

    Previsão horária em Sagaleipie

    Hoje, 18 Agosto, Sábado

    Tempo Temperatura Precipitação Vento Pressão Humidade
    00:00 +23°C° 0,1 mm 1 m/s 725 mmHg 98%
    01:00 +23°C° 0,1 mm 1 m/s 725 mmHg 98%
    02:00 +23°C° 0,1 mm 1 m/s 724 mmHg 98%
    03:00 +23°C° 0,1 mm 1 m/s 724 mmHg 98%
    04:00 +23°C° 0,1 mm 1 m/s 724 mmHg 98%
    05:00 +23°C° 0,1 mm 1 m/s 724 mmHg 98%
    06:00 +23°C° 0,1 mm 1 m/s 724 mmHg 98%
    07:00 +23°C° 0,1 mm 1 m/s 724 mmHg 97%
    08:00 +24°C° 0,1 mm 1 m/s 725 mmHg 96%
    09:00 +25°C° 0,2 mm 1 m/s 725 mmHg 90%
    10:00 +26°C° 0,2 mm 1 m/s 725 mmHg 84%
    11:00 +27°C° 0,2 mm 1 m/s 725 mmHg 78%
    12:00 +28°C° 0,3 mm 1 m/s 724 mmHg 76%
    13:00 +29°C° 0,3 mm 2 m/s 723 mmHg 74%
    14:00 +29°C° 0,3 mm 2 m/s 723 mmHg 73%
    15:00 +28°C° 2,5 mm 2 m/s 723 mmHg 80%
    16:00 +26°C° 2,5 mm 2 m/s 722 mmHg 88%
    17:00 +25°C° 2,5 mm 2 m/s 722 mmHg 96%
    18:00 +24°C° 2,2 mm 2 m/s 723 mmHg 96%
    19:00 +24°C° 2,2 mm 2 m/s 724 mmHg 97%
    20:00 +23°C° 2,2 mm 2 m/s 724 mmHg 98%
    21:00 +23°C° 1,4 mm 2 m/s 724 mmHg 98%
    22:00 +23°C° 1,4 mm 2 m/s 725 mmHg 98%
    23:00 +23°C° 1,4 mm 2 m/s 725 mmHg 98%

    Amanhã, 19 Agosto, Domingo

    Tempo Temperatura Precipitação Vento Pressão Humidade
    00:00 +23°C° 1,8 mm 2 m/s 724 mmHg 99%
    01:00 +23°C° 1,8 mm 2 m/s 724 mmHg 99%
    02:00 +23°C° 1,8 mm 2 m/s 723 mmHg 99%
    03:00 +23°C° 1,4 mm 1 m/s 723 mmHg 99%
    04:00 +23°C° 1,4 mm 1 m/s 723 mmHg 99%
    05:00 +23°C° 1,4 mm 1 m/s 723 mmHg 99%
    06:00 +23°C° 0,7 mm 1 m/s 724 mmHg 98%
    07:00 +23°C° 0,7 mm 1 m/s 724 mmHg 98%
    08:00 +23°C° 0,7 mm 2 m/s 725 mmHg 98%
    09:00 +23°C° 1,3 mm 2 m/s 725 mmHg 98%
    10:00 +23°C° 1,3 mm 2 m/s 725 mmHg 98%
    11:00 +23°C° 1,3 mm 2 m/s 725 mmHg 98%
    12:00 +23°C° 1,6 mm 2 m/s 725 mmHg 98%
    13:00 +23°C° 1,6 mm 2 m/s 724 mmHg 98%
    14:00 +23°C° 1,6 mm 2 m/s 724 mmHg 98%
    15:00 +23°C° 2,1 mm 2 m/s 724 mmHg 98%
    16:00 +23°C° 2,1 mm 2 m/s 724 mmHg 98%
    17:00 +23°C° 2,1 mm 2 m/s 724 mmHg 98%
    18:00 +23°C° 2,5 mm 2 m/s 724 mmHg 98%
    19:00 +23°C° 2,5 mm 2 m/s 725 mmHg 99%
    20:00 +23°C° 2,5 mm 2 m/s 725 mmHg 99%
    21:00 +23°C° 1,2 mm 2 m/s 725 mmHg 99%
    22:00 +23°C° 1,2 mm 2 m/s 726 mmHg 99%
    23:00 +23°C° 1,2 mm 2 m/s 726 mmHg 99%

    Depois de amanhã, 20 Agosto, Segunda-feira

    Tempo Temperatura Precipitação Vento Pressão Humidade
    00:00 +22°C° 0,7 mm 1 m/s 725 mmHg 99%
    01:00 +22°C° 0,7 mm 1 m/s 725 mmHg 99%
    02:00 +22°C° 0,7 mm 1 m/s 724 mmHg 99%
    03:00 +22°C° 0,2 mm 1 m/s 724 mmHg 99%
    04:00 +22°C° 0,2 mm 1 m/s 724 mmHg 99%
    05:00 +22°C° 0,2 mm 1 m/s 724 mmHg 99%
    06:00 +23°C° 0,2 mm 1 m/s 725 mmHg 98%
    07:00 +23°C° 0,2 mm 1 m/s 725 mmHg 97%
    08:00 +23°C° 0,2 mm 2 m/s 726 mmHg 96%
    09:00 +24°C° 0,2 mm 1 m/s 726 mmHg 92%
    10:00 +25°C° 0,2 mm 1 m/s 726 mmHg 87%
    11:00 +26°C° 0,2 mm 1 m/s 726 mmHg 82%
    12:00 +26°C° 0,6 mm 1 m/s 725 mmHg 84%
    13:00 +27°C° 0,6 mm 1 m/s 725 mmHg 85%
    14:00 +27°C° 0,6 mm 1 m/s 724 mmHg 87%
    15:00 +26°C° 0,7 mm 1 m/s 724 mmHg 90%
    16:00 +25°C° 0,7 mm 1 m/s 724 mmHg 93%
    17:00 +25°C° 0,7 mm 1 m/s 724 mmHg 95%
    18:00 +24°C° 0,2 mm 1 m/s 724 mmHg 96%
    19:00 +23°C° 0,2 mm 1 m/s 725 mmHg 97%
    20:00 +22°C° 0,2 mm 1 m/s 726 mmHg 98%
    21:00 +22°C° 0 mm 1 m/s 726 mmHg 99%
    22:00 +22°C° 0 mm 1 m/s 726 mmHg 99%
    23:00 +22°C° 0 mm 1 m/s 726 mmHg 99%

    21 Agosto, Terça-feira

    Tempo Temperatura Precipitação Vento Pressão Humidade
    00:00 +22°C° 0,2 mm 1 m/s 726 mmHg 99%
    01:00 +22°C° 0,2 mm 1 m/s 725 mmHg 99%
    02:00 +22°C° 0,2 mm 1 m/s 725 mmHg 99%
    03:00 +22°C° 0,5 mm 1 m/s 725 mmHg 99%
    04:00 +22°C° 0,5 mm 1 m/s 725 mmHg 99%
    05:00 +22°C° 0,5 mm 1 m/s 725 mmHg 99%
    06:00 +22°C° 0,7 mm 1 m/s 725 mmHg 99%
    07:00 +23°C° 0,7 mm 1 m/s 726 mmHg 98%
    08:00 +23°C° 0,7 mm 1 m/s 726 mmHg 98%
    09:00 +23°C° 0,3 mm 1 m/s 726 mmHg 97%
    10:00 +24°C° 0,3 mm 1 m/s 726 mmHg 96%
    11:00 +24°C° 0,3 mm 1 m/s 726 mmHg 95%
    12:00 +24°C° 0,2 mm 1 m/s 725 mmHg 92%
    13:00 +25°C° 0,2 mm 1 m/s 724 mmHg 89%
    14:00 +26°C° 0,2 mm 1 m/s 724 mmHg 86%
    15:00 +25°C° 0,2 mm 1 m/s 724 mmHg 89%
    16:00 +25°C° 0,2 mm 1 m/s 724 mmHg 91%
    17:00 +25°C° 0,2 mm 1 m/s 724 mmHg 94%
    18:00 +24°C° 0 mm 1 m/s 724 mmHg 95%
    19:00 +23°C° 0 mm 1 m/s 725 mmHg 97%
    20:00 +23°C° 0 mm 1 m/s 725 mmHg 98%
    21:00 +23°C° 0 mm 1 m/s 725 mmHg 98%
    22:00 +23°C° 0 mm 1 m/s 725 mmHg 99%
    23:00 +23°C° 0 mm 1 m/s 726 mmHg 99%

    22 Agosto, Quarta-feira

    Tempo Temperatura Precipitação Vento Pressão Humidade
    00:00 +23°C° 0,3 mm 1 m/s 725 mmHg 99%
    01:00 +23°C° 0,3 mm 1 m/s 725 mmHg 99%
    02:00 +23°C° 0,3 mm 1 m/s 724 mmHg 99%
    03:00 +23°C° 0,6 mm 1 m/s 724 mmHg 99%
    04:00 +22°C° 0,6 mm 1 m/s 724 mmHg 99%
    05:00 +22°C° 0,6 mm 1 m/s 724 mmHg 99%
    06:00 +23°C° 0,3 mm 1 m/s 725 mmHg 97%
    07:00 +23°C° 0,3 mm 1 m/s 725 mmHg 96%
    08:00 +24°C° 0,3 mm 1 m/s 726 mmHg 94%
    09:00 +25°C° 0,1 mm 1 m/s 726 mmHg 89%
    10:00 +26°C° 0,1 mm 1 m/s 726 mmHg 84%
    11:00 +27°C° 0,1 mm 1 m/s 725 mmHg 79%
    12:00 +28°C° 0,1 mm 1 m/s 725 mmHg 75%
    13:00 +28°C° 0,1 mm 2 m/s 724 mmHg 72%
    14:00 +29°C° 0,1 mm 2 m/s 724 mmHg 68%
    15:00 +28°C° 0,4 mm 2 m/s 723 mmHg 73%
    16:00 +28°C° 0,4 mm 1 m/s 723 mmHg 77%
    17:00 +27°C° 0,4 mm 1 m/s 723 mmHg 82%
    18:00 +26°C° 0,1 mm 1 m/s 724 mmHg 87%
    19:00 +24°C° 0,1 mm 1 m/s 725 mmHg 92%
    20:00 +23°C° 0,1 mm 1 m/s 725 mmHg 97%
    21:00 +23°C° 0 mm 1 m/s 725 mmHg 98%
    22:00 +23°C° 0 mm 1 m/s 725 mmHg 98%
    23:00 +23°C° 0 mm 1 m/s 725 mmHg 99%

    23 Agosto, Quinta-feira

    Tempo Temperatura Precipitação Vento Pressão Humidade
    00:00 +23°C° 0,1 mm 1 m/s 725 mmHg 98%
    01:00 +23°C° 0,1 mm 1 m/s 724 mmHg 98%
    02:00 +23°C° 0,1 mm 1 m/s 724 mmHg 98%
    03:00 +23°C° 0 mm 1 m/s 724 mmHg 98%
    04:00 +23°C° 0 mm 1 m/s 724 mmHg 98%
    05:00 +22°C° 0 mm 1 m/s 724 mmHg 98%
    06:00 +23°C° 0 mm 1 m/s 725 mmHg 96%
    07:00 +24°C° 0 mm 1 m/s 725 mmHg 93%
    08:00 +24°C° 0 mm 1 m/s 725 mmHg 91%
    09:00 +26°C° 0,1 mm 1 m/s 725 mmHg 84%
    10:00 +27°C° 0,1 mm 1 m/s 725 mmHg 78%
    11:00 +28°C° 0,1 mm 1 m/s 724 mmHg 71%
    12:00 +29°C° 0,6 mm 1 m/s 724 mmHg 73%
    13:00 +29°C° 0,6 mm 1 m/s 723 mmHg 75%
    14:00 +29°C° 0,6 mm 1 m/s 722 mmHg 77%
    15:00 +28°C° 1,7 mm 1 m/s 722 mmHg 83%
    16:00 +27°C° 1,7 mm 1 m/s 722 mmHg 89%
    17:00 +26°C° 1,7 mm 1 m/s 723 mmHg 94%
    18:00 +25°C° 1,4 mm 1 m/s 723 mmHg 95%
    19:00 +24°C° 1,4 mm 1 m/s 724 mmHg 97%
    20:00 +23°C° 1,4 mm 1 m/s 725 mmHg 98%
    21:00 +23°C° 0,6 mm 1 m/s 725 mmHg 98%
    22:00 +23°C° 0,6 mm 1 m/s 725 mmHg 98%
    23:00 +23°C° 0,6 mm 1 m/s 725 mmHg 99%
    Mostrar mais